Date_and_time,latitude,longitude,wind_speed,RelWindDirFrom,WindDirFrom,air_pressure,air_temperature,relative_humidity,Temp,platform_speed_wrt_ground,air_pressure_at_mean_sea_level,platform_orientation
2018-11-27 23:50,50.6304533333333,-96.9807716666667,5.1,6.6,133,989.05,-10.1,76,0.94,0.0,1018.02,194.5
2018-11-28 00:00,50.630455,-96.9807733333333,4.3,5.9,134,989.06,-10.2,76,0.94,0.0,1018.03,270.0
2018-11-28 00:00,50.630455,-96.9807733333333,3.7,5.3,111,989.09,-9.7,77,0.94,0.0,1018.01,270.0
2018-11-28 00:10,50.630455,-96.9807716666667,4.4,5.9,138,989.08,-10.2,77,0.94,0.0,1018.05,270.0
2018-11-28 00:20,50.630455,-96.9807733333333,4.6,5.9,133,989.08,-10.1,78,0.94,0.0,1018.03,270.0
2018-11-28 00:30,50.630455,-96.9807733333333,4.9,7.0,117,989.04,-9.7,79,0.94,0.0,1017.96,270.0
2018-11-28 00:40,50.6304483333333,-96.9807716666667,5.6,6.9,116,988.84,-9.6,79,0.94,0.0,1017.75,270.0
2018-11-28 00:50,50.6304483333333,-96.9807716666667,4.8,6.4,124,988.75,-9.7,79,0.95,0.0,1017.65,270.0
2018-11-28 01:00,50.6304483333333,-96.98077,4.3,5.9,138,988.73,-10.2,79,0.96,0.0,1017.68,0.0
2018-11-28 01:10,50.6304466666667,-96.9807666666667,4.4,5.8,134,988.66,-10.0,79,0.96,0.0,1017.59,0.0
2018-11-28 01:20,50.6304433333333,-96.9807633333333,3.9,5.4,151,988.62,-10.2,78,0.97,0.0,1017.57,0.0
2018-11-28 01:30,50.630445,-96.9807483333333,3.8,5.2,147,988.52,-10.2,78,0.97,0.0,1017.49,0.0
2018-11-28 01:40,50.630455,-96.9807666666667,3.6,5.7,134,988.34,-10.0,79,0.97,0.0,1017.30,0.0
2018-11-28 01:50,50.6304566666667,-96.9807416666667,4.0,5.6,123,988.16,-9.7,79,0.97,0.0,1017.07,0.0
2018-11-28 02:00,50.6304483333333,-96.98076,3.7,4.7,125,988.08,-9.6,78,0.97,0.0,1017.01,119.2
2018-11-28 02:10,50.63045,-96.9807633333333,4.5,5.6,124,987.91,-9.6,79,0.98,0.0,1016.83,119.2
2018-11-28 02:20,50.6304516666667,-96.9807633333333,4.5,6.1,136,987.91,-9.9,78,0.98,0.0,1016.83,119.2
2018-11-28 02:30,50.6304533333333,-96.9807616666667,4.4,6.0,106,987.83,-9.4,78,0.97,0.0,1016.71,119.2
2018-11-28 02:40,50.6304533333333,-96.9807616666667,4.1,5.6,108,987.82,-9.3,79,0.97,0.0,1016.70,119.2
2018-11-28 02:50,50.630485,-96.9807666666667,4.6,5.7,101,987.85,-9.2,79,0.97,0.0,1016.75,119.2
2018-11-28 03:00,50.63046,-96.9807583333333,4.1,5.5,109,987.93,-9.2,79,0.97,0.0,1016.83,54.7
2018-11-28 03:10,50.6304566666667,-96.9807616666667,3.2,4.5,127,988.04,-9.4,79,0.97,0.0,1016.96,54.7
2018-11-28 03:20,50.630455,-96.98076,3.4,5.0,108,987.90,-9.3,79,0.97,0.0,1016.81,54.7
2018-11-28 03:30,50.630455,-96.9807633333333,4.2,5.5,101,987.82,-9.2,79,0.97,0.0,1016.72,54.7
2018-11-28 03:40,50.6304516666667,-96.980765,4.6,5.9,109,987.76,-9.2,79,0.97,0.0,1016.63,54.7
2018-11-28 03:50,50.63045,-96.98076,4.5,5.9,109,987.68,-9.2,79,0.97,0.0,1016.55,54.7
2018-11-28 04:00,50.6304516666667,-96.9807616666667,5.5,7.3,105,987.46,-9.2,81,0.97,0.0,1016.32,12.6
2018-11-28 04:10,50.6304616666667,-96.9807766666667,5.8,6.9,106,987.34,-9.1,82,0.97,0.0,1016.21,12.6
2018-11-28 04:20,50.6304616666667,-96.9807666666667,5.9,7.5,112,987.40,-9.1,84,0.97,0.0,1016.24,12.6
2018-11-28 04:30,50.6304583333333,-96.98076,6.6,8.9,109,987.32,-9.2,86,0.97,0.0,1016.15,12.6
2018-11-28 04:40,50.630455,-96.9807566666667,6.8,7.8,108,987.28,-9.2,88,0.97,0.0,1016.11,12.6
2018-11-28 04:50,50.630455,-96.9807566666667,6.5,8.1,110,987.30,-9.2,89,0.97,0.0,1016.13,12.6
2018-11-28 05:00,50.6304566666667,-96.9807583333333,7.9,9.0,106,987.12,-9.2,88,0.97,0.0,1015.96,38.0
2018-11-28 05:10,50.6304566666667,-96.9807583333333,8.1,9.9,119,987.20,-9.3,86,0.97,0.0,1016.04,38.0
2018-11-28 05:20,50.6304566666667,-96.9807616666667,8.0,9.9,128,987.26,-9.5,85,0.97,0.0,1016.11,38.0
2018-11-28 05:30,50.6304566666667,-96.9807616666667,8.2,10.3,139,987.40,-9.9,84,0.97,0.0,1016.27,38.0
2018-11-28 05:40,50.630455,-96.9807483333333,9.3,11.2,146,987.43,-10.0,83,0.98,0.0,1016.31,38.0
2018-11-28 05:50,50.63046,-96.9807533333333,10.0,11.2,143,987.31,-10.0,82,0.98,0.0,1016.18,38.0
2018-11-28 06:00,50.6304466666667,-96.9807633333333,9.9,11.5,144,987.25,-10.0,84,0.98,0.0,1016.13,194.5
2018-11-28 06:10,50.6304433333333,-96.98076,9.3,11.0,136,987.17,-9.8,85,0.99,0.0,1016.02,194.5
2018-11-28 06:20,50.6304433333333,-96.980765,8.5,11.1,134,987.09,-9.8,85,1.00,0.0,1015.94,194.5
2018-11-28 06:30,50.6304433333333,-96.9807666666667,9.0,11.3,130,986.87,-9.7,86,1.00,0.0,1015.72,194.5
2018-11-28 06:40,50.6304433333333,-96.9807683333333,9.0,11.4,128,986.81,-9.6,86,1.00,0.0,1015.65,194.5
2018-11-28 06:50,50.630445,-96.9807683333333,10.5,12.5,121,986.72,-9.4,87,1.00,0.0,1015.54,194.5
2018-11-28 07:00,50.6304616666667,-96.98079,10.3,12.6,131,986.68,-9.9,85,1.00,0.0,1015.54,296.7
2018-11-28 07:10,50.6304616666667,-96.980775,9.8,13.4,133,986.73,-10.0,80,1.00,0.0,1015.61,296.7
2018-11-28 07:20,50.6304583333333,-96.98077,11.1,12.8,138,986.71,-10.2,77,1.00,0.0,1015.62,296.7
2018-11-28 07:30,50.6304583333333,-96.98077,10.1,12.4,135,986.62,-10.0,74,1.00,0.0,1015.52,296.7
2018-11-28 07:40,50.63046,-96.9807716666667,9.6,12.3,128,986.51,-9.6,71,1.00,0.0,1015.39,296.7
2018-11-28 07:50,50.6304616666667,-96.98077,9.7,11.8,138,986.47,-9.9,72,1.01,0.0,1015.36,296.7
2018-11-28 08:00,50.6304616666667,-96.98077,9.6,12.5,131,986.45,-9.6,77,1.01,0.0,1015.31,360.0
2018-11-28 08:10,50.630435,-96.9807683333333,9.9,12.8,127,986.43,-9.3,84,1.01,0.0,1015.28,360.0
2018-11-28 08:20,50.6304383333333,-96.9807583333333,10.7,13.4,127,986.30,-9.1,83,1.01,0.0,1015.12,360.0
2018-11-28 08:30,50.6304516666667,-96.9807533333333,12.1,13.7,114,986.14,-8.9,84,1.01,0.0,1014.95,360.0
2018-11-28 08:40,50.6304683333333,-96.9807933333333,11.7,14.5,117,986.11,-8.9,83,1.01,0.0,1014.90,360.0
2018-11-28 08:50,50.6304566666667,-96.9807733333333,11.6,13.4,115,986.08,-8.8,83,1.02,0.0,1014.89,360.0
2018-11-28 09:00,50.6304583333333,-96.9807716666667,12.4,14.5,117,985.96,-8.7,84,1.02,0.0,1014.77,345.5
2018-11-28 09:10,50.630455,-96.9807733333333,11.9,13.7,115,985.96,-8.6,85,1.02,0.0,1014.78,345.5
2018-11-28 09:20,50.6304566666667,-96.9807733333333,11.4,13.5,111,985.93,-8.6,86,1.02,0.0,1014.73,345.5
2018-11-28 09:30,50.630455,-96.980775,12.0,13.8,107,985.73,-8.5,86,1.02,0.0,1014.50,345.5
2018-11-28 09:40,50.630455,-96.980775,12.1,14.1,107,985.68,-8.5,88,1.02,0.0,1014.46,345.5
2018-11-28 09:50,50.630465,-96.980815,12.3,14.3,108,985.60,-8.4,88,1.02,0.0,1014.36,345.5
2018-11-28 10:00,50.6304516666667,-96.980775,12.3,14.8,107,985.50,-8.4,89,1.02,0.0,1014.24,130.6
2018-11-28 10:10,50.630455,-96.98077,13.3,15.3,107,985.38,-8.4,88,1.02,0.0,1014.10,130.6
2018-11-28 10:20,50.630455,-96.9807683333333,13.2,15.3,108,985.30,-8.4,88,1.02,0.0,1014.01,130.6
2018-11-28 10:30,50.6304566666667,-96.98077,12.9,14.9,109,985.25,-8.3,88,1.02,0.0,1013.96,130.6
2018-11-28 10:40,50.6304566666667,-96.98077,13.0,15.5,108,985.13,-8.3,89,1.02,0.0,1013.82,130.6
2018-11-28 10:50,50.6304616666667,-96.9807616666667,14.4,16.2,108,985.05,-8.3,87,1.02,0.0,1013.74,130.6
2018-11-28 11:00,50.6304616666667,-96.9807733333333,14.0,15.9,110,984.95,-8.2,87,1.02,0.0,1013.63,270.0
2018-11-28 11:10,50.63046,-96.980775,13.0,16.0,113,984.85,-8.2,88,1.01,0.0,1013.52,270.0
2018-11-28 11:20,50.6304583333333,-96.980775,13.1,15.1,114,985.00,-8.1,87,1.01,0.0,1013.67,270.0
2018-11-28 11:30,50.6304583333333,-96.9807733333333,13.1,14.9,117,984.94,-8.0,87,1.01,0.0,1013.60,270.0
2018-11-28 11:40,50.6304583333333,-96.980775,13.6,15.6,117,984.76,-8.0,87,1.01,0.0,1013.41,270.0
2018-11-28 11:50,50.63046,-96.980775,14.0,16.1,116,984.64,-8.0,86,1.01,0.0,1013.28,270.0
2018-11-28 12:00,50.63046,-96.9807783333333,12.8,15.7,117,984.52,-8.0,86,1.01,0.0,1013.15,270.0
2018-11-28 12:10,50.63046,-96.9807766666667,12.4,14.6,119,984.55,-7.9,86,1.01,0.0,1013.18,270.0
2018-11-28 12:20,50.63046,-96.9807766666667,12.4,15.0,122,984.52,-7.9,86,1.01,0.0,1013.15,270.0
2018-11-28 12:30,50.6304616666667,-96.980755,12.4,14.2,120,984.46,-7.9,86,1.01,0.0,1013.09,270.0
2018-11-28 12:40,50.6304566666667,-96.9807983333333,13.0,15.2,120,984.39,-7.8,86,1.01,0.0,1013.01,270.0
2018-11-28 12:50,50.630455,-96.9807816666667,12.2,14.1,120,984.47,-7.8,87,1.00,0.0,1013.08,270.0
2018-11-28 13:00,50.630455,-96.9807783333333,13.2,15.1,123,984.48,-7.8,87,0.98,0.0,1013.10,270.0
2018-11-28 13:10,50.630455,-96.98078,12.7,15.6,126,984.44,-7.8,87,0.97,0.0,1013.05,270.0
2018-11-28 13:20,50.6304716666667,-96.9807766666667,12.8,14.7,123,984.32,-7.7,87,0.97,0.0,1012.91,270.0
2018-11-28 13:30,50.63044,-96.9807883333333,13.7,16.3,122,984.20,-7.6,87,0.97,0.0,1012.79,270.0
2018-11-28 13:40,50.630445,-96.9807833333333,14.0,16.8,120,984.03,-7.6,87,0.98,0.0,1012.61,270.0
2018-11-28 13:50,50.6304466666667,-96.9807816666667,14.5,16.8,119,983.93,-7.5,87,0.98,0.0,1012.51,270.0
2018-11-28 14:00,50.6304483333333,-96.98078,14.1,16.7,116,983.81,-7.5,87,0.99,0.0,1012.37,183.2
2018-11-28 14:10,50.6304566666667,-96.9807633333333,14.2,16.9,115,983.70,-7.5,87,1.00,0.0,1012.26,183.2
2018-11-28 14:20,50.6304616666667,-96.9807666666667,13.9,16.6,113,983.68,-7.4,87,1.00,0.0,1012.23,183.2
2018-11-28 14:30,50.6304516666667,-96.9807833333333,14.4,16.5,109,983.63,-7.4,87,1.01,0.0,1012.18,183.2
2018-11-28 14:40,50.630455,-96.9807983333333,13.8,16.0,111,983.67,-7.4,88,1.01,0.0,1012.22,183.2
2018-11-28 14:50,50.6304483333333,-96.9807783333333,14.2,15.9,109,983.69,-7.3,87,1.01,0.0,1012.24,183.2
2018-11-28 15:00,50.63045,-96.9807766666667,13.9,16.2,110,983.72,-7.2,87,1.01,0.0,1012.26,119.2
2018-11-28 15:10,50.6304333333333,-96.9807583333333,13.6,16.4,114,983.68,-7.1,88,1.01,0.0,1012.21,119.2
2018-11-28 15:20,50.630455,-96.98077,14.3,16.3,114,983.64,-7.1,87,1.00,0.0,1012.16,119.2
2018-11-28 15:30,50.63045,-96.9807716666667,13.2,16.0,114,983.65,-7.0,88,0.98,0.0,1012.17,119.2
2018-11-28 15:40,50.6304533333333,-96.9807766666667,13.8,16.4,113,983.57,-6.9,88,0.98,0.0,1012.08,119.2
2018-11-28 15:50,50.630455,-96.98078,13.7,16.0,115,983.50,-6.9,88,0.98,0.0,1012.00,119.2
2018-11-28 16:00,50.6304516666667,-96.9807733333333,13.7,15.9,111,983.52,-6.9,88,0.98,0.0,1012.02,90.0
2018-11-28 16:10,50.63045,-96.9807716666667,13.9,16.3,110,983.43,-6.9,90,0.98,0.0,1011.92,90.0
2018-11-28 16:20,50.6304483333333,-96.98077,13.8,16.6,113,983.32,-6.8,89,0.99,0.0,1011.80,90.0
2018-11-28 16:30,50.6304433333333,-96.9807733333333,14.3,17.0,111,983.22,-6.7,88,0.99,0.0,1011.69,90.0
2018-11-28 16:40,50.630455,-96.9807666666667,14.9,17.0,112,983.18,-6.7,88,1.00,0.0,1011.64,90.0
2018-11-28 16:50,50.630445,-96.98076,14.4,16.5,111,983.12,-6.6,89,1.00,0.0,1011.58,90.0
2018-11-28 17:00,50.6304483333333,-96.9807766666667,14.4,16.7,112,983.02,-6.6,89,1.01,0.0,1011.47,90.0
2018-11-28 17:10,50.630445,-96.980775,13.8,16.1,113,982.90,-6.6,91,1.01,0.0,1011.34,90.0
2018-11-28 17:20,50.630445,-96.980775,13.5,15.6,112,982.84,-6.5,92,1.01,0.0,1011.28,90.0
2018-11-28 17:30,50.630445,-96.980775,13.8,15.7,112,982.72,-6.4,92,1.01,0.0,1011.14,90.0
2018-11-28 17:40,50.630445,-96.9807733333333,13.7,15.8,114,982.57,-6.4,92,1.01,0.0,1010.98,90.0
2018-11-28 17:50,50.630445,-96.9807733333333,14.2,16.7,113,982.43,-6.3,94,1.01,0.0,1010.84,90.0
2018-11-28 18:00,50.6304466666667,-96.9807733333333,13.2,15.5,112,982.30,-6.3,98,1.00,0.0,1010.70,360.0
2018-11-28 18:10,50.6304466666667,-96.9807733333333,13.1,15.4,109,982.14,-6.2,99,1.00,0.0,1010.53,360.0
2018-11-28 18:20,50.6304466666667,-96.9807733333333,13.1,15.3,109,982.02,-6.2,99,1.00,0.0,1010.40,360.0
2018-11-28 18:30,50.6304466666667,-96.9807716666667,13.7,16.1,107,981.83,-6.1,99,1.00,0.0,1010.19,360.0
2018-11-28 18:40,50.6304466666667,-96.9807716666667,13.1,15.8,106,981.73,-6.0,99,1.00,0.0,1010.08,360.0
2018-11-28 18:50,50.6304483333333,-96.9807716666667,14.4,16.3,101,981.58,-6.0,99,1.00,0.0,1009.92,360.0
2018-11-28 19:00,50.6304483333333,-96.9807716666667,14.8,17.1,101,981.38,-5.9,99,1.00,0.0,1009.72,360.0
2018-11-28 19:10,50.6304483333333,-96.9807716666667,14.7,17.5,100,981.27,-5.9,99,1.00,0.0,1009.60,360.0
2018-11-28 19:20,50.63046,-96.9807966666667,14.8,17.2,97,981.13,-5.7,99,1.00,0.0,1009.44,360.0
2018-11-28 19:30,50.6304533333333,-96.9807666666667,14.7,16.6,95,981.02,-5.7,99,1.01,0.0,1009.32,360.0
2018-11-28 19:40,50.6304483333333,-96.98077,14.3,17.8,94,980.92,-5.6,99,1.01,0.0,1009.21,360.0
2018-11-28 19:50,50.63045,-96.980755,13.9,17.2,91,980.79,-5.6,99,1.01,0.0,1009.08,360.0
2018-11-28 20:00,50.6304516666667,-96.98076,13.9,17.9,92,980.72,-5.5,99,1.01,0.0,1009.00,54.7
2018-11-28 20:10,50.63045,-96.9807616666667,13.8,16.4,94,980.74,-5.3,99,1.01,0.0,1009.01,54.7
2018-11-28 20:20,50.6304516666667,-96.98076,13.4,15.5,103,980.78,-5.2,99,1.01,0.0,1009.04,54.7
2018-11-28 20:30,50.63045,-96.98076,13.4,15.6,101,980.77,-5.2,99,1.00,0.0,1009.01,54.7
2018-11-28 20:40,50.6304483333333,-96.9807633333333,13.1,15.5,95,980.73,-5.1,99,1.00,0.0,1008.97,54.7
2018-11-28 20:50,50.6304483333333,-96.980765,12.2,14.3,93,980.62,-5.0,99,1.00,0.0,1008.85,54.7
2018-11-28 21:00,50.6304483333333,-96.9807633333333,12.1,14.9,93,980.56,-5.0,99,1.00,0.0,1008.78,90.0
2018-11-28 21:10,50.63045,-96.980765,12.0,14.6,93,980.53,-5.0,99,1.01,0.0,1008.75,90.0
2018-11-28 21:20,50.6304483333333,-96.980765,12.1,16.1,91,980.46,-5.0,99,1.01,0.0,1008.67,90.0
2018-11-28 21:30,50.63045,-96.980765,10.8,14.2,88,980.45,-5.0,99,1.01,0.0,1008.66,90.0
2018-11-28 21:40,50.63045,-96.980765,10.3,13.1,87,980.47,-5.0,100,1.01,0.0,1008.67,90.0
2018-11-28 21:50,50.63045,-96.9807666666667,10.7,12.6,85,980.52,-5.0,100,1.01,0.0,1008.72,90.0
2018-11-28 22:00,50.63045,-96.9807683333333,11.8,14.5,87,980.55,-5.0,100,1.01,0.0,1008.75,12.6
2018-11-28 22:10,50.6304483333333,-96.9807666666667,11.8,14.1,85,980.53,-5.0,100,1.00,0.0,1008.72,12.6
2018-11-28 22:20,50.6304316666667,-96.9807483333333,11.7,14.1,86,980.64,-5.0,100,1.00,0.0,1008.83,12.6
2018-11-28 22:30,50.6304466666667,-96.9807683333333,11.4,14.1,88,980.69,-5.0,100,1.00,0.0,1008.87,12.6
2018-11-28 22:40,50.6304433333333,-96.9807683333333,11.9,14.5,90,980.66,-5.0,100,1.00,0.0,1008.84,12.6
2018-11-28 22:50,50.630445,-96.9807716666667,12.6,14.9,90,980.62,-5.0,100,1.00,0.0,1008.80,12.6
2018-11-28 23:00,50.6304533333333,-96.9807433333333,12.0,15.3,90,980.59,-5.0,100,1.01,0.0,1008.77,90.0
2018-11-28 23:10,50.630455,-96.9807716666667,11.6,14.1,88,980.53,-5.0,100,1.01,0.0,1008.71,90.0
2018-11-28 23:20,50.6304516666667,-96.9807683333333,11.2,13.7,87,980.45,-5.0,100,1.01,0.0,1008.62,90.0
2018-11-28 23:30,50.6304433333333,-96.980755,11.4,14.5,88,980.46,-4.9,100,1.01,0.0,1008.63,90.0
